FW1417 Weather Reports


Display with metric or nautical units.
time (UTC)temp
F
wind
direction
speed
MPH
gust
MPH
rain 1hr
in
rain 24hr
in
rain mn
in
humidity
%
barometer
mb
20180816061658 80 228 1.0 6.0 0.00 0.00 0.00 73 1015.2
20180816061159 80 228 1.0 6.0 0.00 0.00 0.00 73 1015.2
20180816060659 80 244 1.0 3.0 0.00 0.00 0.00 72 1015.2
20180816060159 80 243 1.0 7.0 0.00 0.00 0.00 72 1015.2
20180816055659 80 240 3.0 7.0 0.00 0.00 0.00 72 1015.3
20180816055159 80 205 3.0 5.0 0.00 0.00 0.00 72 1015.3
20180816054659 80 225 0.0 5.0 0.00 0.00 0.00 72 1015.3
20180816054159 80 229 0.0 2.0 0.00 0.00 0.00 72 1015.3
20180816053659 80 286 0.0 0.0 0.00 0.00 0.00 71 1015.3
20180816053159 81 286 0.0 2.0 0.00 0.00 0.00 71 1015.3
20180816052658 81 286 0.0 2.0 0.00 0.00 0.00 71 1015.3
20180816052158 81 286 0.0 2.0 0.00 0.00 0.00 71 1015.3
20180816051659 81 286 0.0 0.0 0.00 0.00 0.00 71 1015.3
20180816051159 81 286 0.0 2.0 0.00 0.00 0.00 71 1015.3
20180816050658 81 251 0.0 3.0 0.00 0.00 0.00 70 1015.3
20180816050159 81 291 1.0 3.0 0.00 0.00 0.00 70 1015.3
20180816045658 81 293 1.0 5.0 0.00 0.00 0.00 70 1015.3
20180816045158 81 284 3.0 5.0 0.00 0.00 0.00 70 1015.3
20180816044659 81 221 2.0 5.0 0.00 0.00 0.00 70 1015.3
20180816044158 81 278 1.0 3.0 0.00 0.00 0.00 70 1015.4
20180816043658 81 275 1.0 3.0 0.00 0.00 0.00 70 1015.3
20180816043159 81 271 0.0 5.0 0.00 0.00 0.00 69 1015.3
20180816042659 81 290 0.0 5.0 0.00 0.00 0.00 69 1015.3
20180816042159 81 305 1.0 5.0 0.00 0.00 0.00 69 1015.2
20180816041659 82 259 1.0 5.0 0.00 0.00 0.00 69 1015.1
20180816041159 82 265 2.0 3.0 0.00 0.00 0.00 69 1015.0
20180816040659 82 290 1.0 3.0 0.00 0.00 0.00 69 1015.0
20180816040159 82 269 0.0 3.0 0.00 0.00 0.00 69 1014.9
20180816035659 82 301 1.0 5.0 0.00 0.00 0.00 69 1014.8
20180816035159 82 288 2.0 5.0 0.00 0.00 0.00 69 1014.8
20180816034658 82 269 1.0 3.0 0.00 0.00 0.00 68 1014.8
20180816034158 82 288 1.0 5.0 0.00 0.00 0.00 68 1014.8
20180816033701 82 292 2.0 5.0 0.00 0.00 0.00 68 1014.8
20180816033159 82 348 2.0 6.0 0.00 0.00 0.00 67 1014.8
20180816032658 82 323 3.0 7.0 0.00 0.00 0.00 67 1014.8
20180816032158 83 284 3.0 7.0 0.00 0.00 0.00 67 1014.8
20180816031659 83 267 1.0 3.0 0.00 0.00 0.00 67 1014.8
20180816031159 83 267 0.0 3.0 0.00 0.00 0.00 66 1014.8
20180816030658 83 267 2.0 3.0 0.00 0.00 0.00 66 1014.8
20180816030159 83 279 2.0 3.0 0.00 0.00 0.00 66 1014.8
20180816025659 83 254 1.0 3.0 0.00 0.00 0.00 66 1014.7
20180816025158 83 269 1.0 5.0 0.00 0.00 0.00 66 1014.7
20180816024658 83 271 2.0 5.0 0.00 0.00 0.00 65 1014.7
20180816024158 83 292 1.0 5.0 0.00 0.00 0.00 65 1014.6
20180816023659 83 202 1.0 5.0 0.00 0.00 0.00 65 1014.6
20180816023159 83 242 1.0 6.0 0.00 0.00 0.00 65 1014.4
20180816022659 83 240 2.0 7.0 0.00 0.00 0.00 65 1014.4
20180816022159 83 227 2.0 7.0 0.00 0.00 0.00 64 1014.4
20180816021659 84 225 2.0 6.0 0.00 0.00 0.00 64 1014.4
20180816021159 84 195 3.0 7.0 0.00 0.00 0.00 64 1014.4
20180816020658 84 277 3.0 8.0 0.00 0.00 0.00 64 1014.5
20180816020159 84 236 2.0 12.0 0.00 0.00 0.00 63 1014.5
20180816015659 84 206 5.0 12.0 0.00 0.00 0.00 63 1014.7
20180816015159 84 244 5.0 12.0 0.00 0.00 0.00 63 1014.7
20180816014659 84 225 4.0 12.0 0.00 0.00 0.00 63 1014.6
20180816014159 84 217 4.0 12.0 0.00 0.00 0.00 62 1014.6
20180816013658 84 225 3.0 10.0 0.00 0.00 0.00 62 1014.5
20180816013158 85 241 5.0 12.0 0.00 0.00 0.00 62 1014.4
20180816012659 85 89 4.0 12.0 0.00 0.00 0.00 62 1014.3
20180816012158 85 219 4.0 12.0 0.00 0.00 0.00 62 1014.4
20180816011659 85 213 5.0 12.0 0.00 0.00 0.00 61 1014.3
20180816011158 85 228 3.0 10.0 0.00 0.00 0.00 61 1014.3
20180816010659 85 244 2.0 10.0 0.00 0.00 0.00 61 1014.3
20180816010158 85 238 2.0 6.0 0.00 0.00 0.00 61 1014.2
20180816005659 85 203 1.0 6.0 0.00 0.00 0.00 60 1014.1
20180816005159 85 222 3.0 6.0 0.00 0.00 0.00 60 1014.0
20180816004659 85 211 3.0 8.0 0.00 0.00 0.00 60 1013.9
20180816004159 85 219 3.0 8.0 0.00 0.00 0.00 60 1013.9
20180816003659 85 246 1.0 12.0 0.00 0.00 0.00 59 1013.9
20180816003159 85 221 3.0 12.0 0.00 0.00 0.00 59 1013.9
20180816002659 85 247 2.0 9.0 0.00 0.00 0.00 58 1013.9
20180816002158 86 178 4.0 9.0 0.00 0.00 0.00 58 1013.9
20180816001700 86 180 3.0 9.0 0.00 0.00 0.00 58 1013.9
20180816001159 86 238 3.0 8.0 0.00 0.00 0.00 57 1013.8
20180816000658 86 227 3.0 7.0 0.00 0.00 0.00 57 1013.8
20180816000159 86 184 2.0 9.0 0.00 0.00 0.00 57 1013.8
20180815235659 86 215 1.0 9.0 0.00 0.00 0.00 56 1013.7
20180815235158 86 241 4.0 9.0 0.00 0.00 0.00 56 1013.7
20180815234659 86 217 3.0 12.0 0.00 0.00 0.00 56 1013.4
20180815234159 86 211 3.0 12.0 0.00 0.00 0.00 55 1013.3
20180815233659 86 222 5.0 12.0 0.00 0.00 0.00 55 1013.3
20180815233159 87 240 4.0 10.0 0.00 0.00 0.00 55 1013.3
20180815232659 87 200 3.0 9.0 0.00 0.00 0.00 55 1013.3
20180815232158 87 258 2.0 9.0 0.00 0.00 0.00 55 1013.2
20180815231659 87 248 5.0 12.0 0.00 0.00 0.00 55 1013.2
20180815231159 87 258 4.0 12.0 0.00 0.00 0.00 55 1013.1
20180815230658 87 278 3.0 9.0 0.00 0.00 0.00 55 1012.9
20180815230159 87 229 3.0 9.0 0.00 0.00 0.00 54 1012.9
20180815225659 88 220 2.0 12.0 0.00 0.00 0.00 52 1012.9
20180815225159 88 281 2.0 12.0 0.00 0.00 0.00 50 1012.8
20180815224659 88 219 3.0 12.0 0.00 0.00 0.00 49 1012.8
20180815224159 88 285 2.0 6.0 0.00 0.00 0.00 49 1012.8
20180815223659 89 237 3.0 10.0 0.00 0.00 0.00 48 1012.8
20180815223159 89 268 3.0 10.0 0.00 0.00 0.00 47 1012.7
20180815222659 89 321 4.0 10.0 0.00 0.00 0.00 48 1012.7
20180815222158 89 265 2.0 7.0 0.00 0.00 0.00 47 1012.7
20180815221700 89 271 2.0 9.0 0.00 0.00 0.00 46 1012.7
20180815221159 89 276 3.0 9.0 0.00 0.00 0.00 46 1012.7
20180815220659 89 288 3.0 7.0 0.00 0.00 0.00 46 1012.7
20180815220159 89 320 2.0 12.0 0.00 0.00 0.00 46 1012.6
20180815215700 90 261 3.0 12.0 0.00 0.00 0.00 46 1012.6
20180815215159 90 259 2.0 7.0 0.00 0.00 0.00 46 1012.5
20180815214659 90 285 2.0 10.0 0.00 0.00 0.00 45 1012.4
20180815214158 90 304 3.0 10.0 0.00 0.00 0.00 44 1012.3
20180815213659 90 11 4.0 12.0 0.00 0.00 0.00 44 1012.3
20180815213159 90 272 5.0 12.0 0.00 0.00 0.00 44 1012.3
20180815212659 91 292 3.0 12.0 0.00 0.00 0.00 43 1012.3
20180815212159 91 273 3.0 12.0 0.00 0.00 0.00 44 1012.3
20180815211659 91 355 3.0 12.0 0.00 0.00 0.00 43 1012.2
20180815211158 91 234 1.0 9.0 0.00 0.00 0.00 43 1012.3
20180815210659 91 9 4.0 9.0 0.00 0.00 0.00 43 1012.3
20180815210158 91 36 2.0 10.0 0.00 0.00 0.00 43 1012.3
20180815205659 91 244 1.0 10.0 0.00 0.00 0.00 43 1012.3
20180815205159 91 355 3.0 9.0 0.00 0.00 0.00 42 1012.4
20180815204659 91 278 2.0 9.0 0.00 0.00 0.00 43 1012.3
20180815204159 91 44 3.0 9.0 0.00 0.00 0.00 43 1012.3
20180815203659 91 217 4.0 9.0 0.00 0.00 0.00 42 1012.3
20180815203159 91 61 5.0 13.0 0.00 0.00 0.00 42 1012.3
20180815202659 91 263 2.0 14.0 0.00 0.00 0.00 42 1012.5
20180815202159 91 259 1.0 14.0 0.00 0.00 0.00 42 1012.6
20180815201658 91 261 4.0 13.0 0.00 0.00 0.00 42 1012.4
20180815201159 91 287 6.0 13.0 0.00 0.00 0.00 41 1012.4
20180815200659 91 269 3.0 7.0 0.00 0.00 0.00 43 1012.3
20180815200159 90 319 3.0 12.0 0.00 0.01 0.00 43 1012.3
20180815195658 90 281 3.0 12.0 0.00 0.02 0.00 44 1012.3
20180815195200 90 176 4.0 13.0 0.00 0.05 0.00 44 1012.3
20180815194659 90 261 4.0 13.0 0.00 0.10 0.00 43 1012.3
20180815194158 91 257 4.0 13.0 0.00 0.16 0.00 44 1012.4
20180815193659 92 269 2.0 12.0 0.00 0.25 0.00 42 1012.5
20180815193159 91 281 1.0 12.0 0.00 0.29 0.00 43 1012.5
20180815192659 91 274 3.0 12.0 0.00 0.29 0.00 44 1012.5
20180815192200 91 22 5.0 12.0 0.00 0.29 0.00 43 1012.6
20180815191659 91 34 3.0 12.0 0.00 0.29 0.00 43 1012.7
20180815191159 91 318 4.0 12.0 0.00 0.31 0.00 42 1012.7
20180815190659 91 275 3.0 10.0 0.00 0.32 0.00 43 1012.7
20180815190159 91 334 5.0 10.0 0.00 0.32 0.00 44 1012.7
20180815185659 91 15 2.0 15.0 0.00 0.32 0.00 43 1012.7
20180815185159 91 36 5.0 15.0 0.00 0.32 0.00 42 1012.8
20180815184659 91 346 3.0 13.0 0.00 0.32 0.00 43 1012.8
20180815184200 91 323 4.0 12.0 0.00 0.32 0.00 42 1012.8
20180815183659 91 273 3.0 13.0 0.00 0.32 0.00 44 1012.8
20180815183159 91 261 5.0 13.0 0.00 0.32 0.00 43 1012.8
20180815182659 91 348 3.0 10.0 0.00 0.32 0.00 44 1012.8
20180815182159 90 259 3.0 9.0 0.00 0.32 0.00 45 1012.8
20180815181659 90 13 5.0 13.0 0.00 0.32 0.00 45 1012.8
20180815181158 90 26 3.0 13.0 0.00 0.32 0.00 45 1012.8
20180815180658 90 350 6.0 12.0 0.00 0.32 0.00 45 1012.8
20180815180158 90 250 6.0 12.0 0.00 0.32 0.00 46 1012.8
20180815175659 90 277 6.0 12.0 0.00 0.32 0.00 46 1012.8
20180815175159 90 238 4.0 12.0 0.00 0.32 0.00 47 1012.8
20180815174659 90 25 3.0 10.0 0.00 0.32 0.00 46 1012.8
20180815174159 90 15 3.0 12.0 0.00 0.32 0.00 46 1012.8
20180815173659 90 59 3.0 12.0 0.00 0.32 0.00 47 1012.8
20180815173159 89 296 3.0 12.0 0.00 0.32 0.00 48 1012.8
20180815172659 89 235 3.0 10.0 0.00 0.32 0.00 49 1012.8
20180815172159 89 275 4.0 13.0 0.00 0.32 0.00 49 1012.8
20180815171659 89 291 5.0 13.0 0.00 0.32 0.00 49 1012.8
20180815171159 89 262 5.0 12.0 0.00 0.32 0.00 49 1012.8
20180815170659 89 322 5.0 12.0 0.00 0.32 0.00 49 1012.8
20180815170200 89 5 4.0 9.0 0.00 0.32 0.00 50 1012.9
20180815165659 89 247 3.0 10.0 0.00 0.32 0.00 49 1013.0
20180815165159 89 277 3.0 10.0 0.00 0.32 0.00 50 1012.9
20180815164659 88 0 3.0 10.0 0.00 0.32 0.00 50 1012.9
20180815164159 88 58 3.0 13.0 0.00 0.32 0.00 50 1012.8
20180815163659 88 20 4.0 13.0 0.00 0.32 0.00 51 1012.8
20180815163159 88 269 3.0 13.0 0.00 0.32 0.00 51 1012.8
20180815162658 87 300 4.0 13.0 0.00 0.32 0.00 53 1012.9
20180815162159 87 289 6.0 12.0 0.00 0.32 0.00 52 1012.9
20180815161700 87 268 4.0 12.0 0.00 0.32 0.00 52 1012.9
20180815161158 87 287 4.0 12.0 0.00 0.32 0.00 52 1013.0
20180815160659 87 32 5.0 10.0 0.00 0.32 0.00 53 1012.8
20180815160200 87 355 3.0 12.0 0.00 0.32 0.00 53 1012.8
20180815155659 86 271 3.0 12.0 0.00 0.32 0.00 53 1012.8
20180815155159 86 280 3.0 12.0 0.00 0.32 0.00 54 1012.8
20180815154659 86 278 5.0 12.0 0.00 0.32 0.00 53 1012.8
20180815154159 86 306 2.0 10.0 0.00 0.32 0.00 53 1012.8
20180815153659 86 325 4.0 10.0 0.00 0.32 0.00 54 1012.8
20180815153159 86 53 5.0 9.0 0.00 0.32 0.00 54 1012.8
20180815152659 85 336 3.0 8.0 0.00 0.32 0.00 54 1012.8
20180815152200 85 312 2.0 8.0 0.00 0.32 0.00 56 1012.8
20180815151659 85 276 3.0 10.0 0.00 0.32 0.00 56 1012.8
20180815151158 84 23 2.0 10.0 0.00 0.32 0.00 58 1012.8
20180815150659 84 196 2.0 9.0 0.00 0.32 0.00 59 1012.8
20180815150159 84 48 3.0 9.0 0.00 0.32 0.00 58 1012.8
20180815145658 83 346 2.0 7.0 0.00 0.32 0.00 61 1012.8
20180815145159 83 34 3.0 9.0 0.00 0.32 0.00 59 1012.8
20180815144700 83 290 3.0 9.0 0.00 0.32 0.00 61 1012.9
20180815144159 83 49 3.0 9.0 0.00 0.32 0.00 61 1012.8
20180815143659 83 355 2.0 9.0 0.00 0.32 0.00 62 1012.8
20180815143159 82 324 3.0 9.0 0.00 0.32 0.00 63 1012.8
20180815142659 82 307 2.0 9.0 0.00 0.32 0.00 64 1012.8
20180815142159 81 257 2.0 8.0 0.00 0.32 0.00 64 1012.8
20180815141659 81 288 1.0 7.0 0.00 0.32 0.00 65 1012.7
20180815141159 81 288 2.0 7.0 0.00 0.32 0.00 66 1012.7
20180815140659 80 300 3.0 7.0 0.00 0.32 0.00 66 1012.8
20180815140159 80 350 2.0 9.0 0.00 0.32 0.00 67 1012.8
20180815135659 80 328 3.0 9.0 0.00 0.32 0.00 68 1012.7
20180815135159 80 271 4.0 9.0 0.00 0.32 0.00 67 1012.7
20180815134700 79 269 3.0 7.0 0.00 0.32 0.00 68 1012.8
20180815134159 79 269 2.0 8.0 0.00 0.32 0.00 68 1012.7
20180815133659 79 292 4.0 12.0 0.00 0.32 0.00 69 1012.6
20180815133159 79 280 3.0 12.0 0.00 0.32 0.00 70 1012.7
20180815132659 78 306 3.0 12.0 0.00 0.32 0.00 70 1012.6
20180815132200 78 275 5.0 12.0 0.00 0.32 0.00 71 1012.7
20180815131700 77 21 3.0 9.0 0.00 0.32 0.00 72 1012.6
20180815131159 77 338 5.0 12.0 0.00 0.32 0.00 73 1012.7
20180815130700 77 325 5.0 12.0 0.00 0.32 0.00 73 1012.7
20180815130159 76 240 2.0 6.0 0.00 0.32 0.00 75 1012.6
20180815125659 76 280 2.0 6.0 0.00 0.32 0.00 75 1012.4
20180815125159 75 347 2.0 6.0 0.00 0.32 0.00 77 1012.6
20180815124659 75 284 2.0 5.0 0.00 0.32 0.00 79 1012.7
20180815124159 74 239 2.0 8.0 0.00 0.32 0.00 79 1012.6
20180815123700 74 300 2.0 9.0 0.00 0.32 0.00 79 1012.6
20180815123159 74 244 3.0 10.0 0.00 0.32 0.00 79 1012.3
20180815122700 74 285 4.0 10.0 0.00 0.32 0.00 80 1012.3
20180815122159 73 247 0.0 6.0 0.00 0.32 0.00 80 1012.2
20180815121658 73 266 1.0 6.0 0.00 0.32 0.00 81 1012.2
20180815121159 73 300 1.0 5.0 0.00 0.32 0.00 81 1012.2
20180815120659 73 279 2.0 5.0 0.00 0.32 0.00 81 1012.1
20180815120159 73 292 1.0 5.0 0.00 0.32 0.00 81 1012.1
20180815115659 72 265 0.0 5.0 0.00 0.32 0.00 82 1012.0
20180815115159 72 199 2.0 5.0 0.00 0.32 0.00 82 1011.9
20180815114659 72 267 1.0 6.0 0.00 0.32 0.00 82 1012.1
20180815114158 72 286 0.0 6.0 0.00 0.32 0.00 83 1012.0
20180815113659 72 269 2.0 6.0 0.00 0.32 0.00 83 1011.9
20180815113158 72 302 0.0 0.0 0.00 0.32 0.00 84 1011.9
20180815112659 71 271 0.0 0.0 0.00 0.32 0.00 84 1011.8
20180815112159 71 271 0.0 1.0 0.00 0.32 0.00 84 1011.8
20180815111659 71 284 0.0 1.0 0.00 0.32 0.00 84 1011.8
20180815111159 71 242 0.0 3.0 0.00 0.32 0.00 84 1011.7
20180815110659 71 284 0.0 3.0 0.00 0.32 0.00 85 1011.7
20180815110159 71 265 1.0 3.0 0.00 0.32 0.00 85 1011.7
20180815105659 71 272 2.0 3.0 0.00 0.32 0.00 85 1011.7
20180815105159 71 186 1.0 3.0 0.00 0.32 0.00 85 1011.6
20180815104658 71 293 1.0 6.0 0.00 0.32 0.00 85 1011.4
20180815104159 71 272 2.0 6.0 0.00 0.32 0.00 85 1011.4
20180815103659 71 311 1.0 7.0 0.00 0.32 0.00 85 1011.4
20180815103159 71 279 0.0 7.0 0.00 0.32 0.00 85 1011.4
20180815102659 71 257 3.0 7.0 0.00 0.32 0.00 85 1011.4
20180815102158 71 298 2.0 6.0 0.00 0.32 0.00 85 1011.4
20180815101659 71 221 2.0 6.0 0.00 0.32 0.00 85 1011.3
20180815101159 71 296 2.0 6.0 0.00 0.32 0.00 85 1011.2
20180815100659 71 271 0.0 3.0 0.00 0.32 0.00 85 1011.2
20180815100159 71 270 1.0 3.0 0.00 0.32 0.00 85 1011.1
20180815095659 71 284 0.0 7.0 0.00 0.32 0.00 85 1011.1
20180815095158 70 270 1.0 7.0 0.00 0.32 0.00 85 1011.2
20180815094659 70 280 0.0 3.0 0.00 0.32 0.00 86 1011.2
20180815094159 70 258 0.0 5.0 0.00 0.32 0.00 86 1011.1
20180815093659 70 340 2.0 6.0 0.00 0.32 0.00 86 1011.0
20180815093158 70 262 2.0 6.0 0.00 0.32 0.00 86 1011.0
20180815092659 70 276 0.0 6.0 0.00 0.32 0.00 86 1010.8
20180815092159 70 248 1.0 6.0 0.00 0.32 0.00 86 1010.8
20180815091659 70 271 2.0 6.0 0.00 0.32 0.00 87 1010.8
20180815091159 70 300 2.0 5.0 0.00 0.32 0.00 87 1010.8
20180815090659 70 260 1.0 6.0 0.00 0.32 0.00 87 1010.8
20180815090159 70 267 0.0 6.0 0.00 0.32 0.00 87 1010.8
20180815085659 70 285 0.0 6.0 0.00 0.32 0.00 87 1010.8
20180815085159 70 259 1.0 5.0 0.00 0.32 0.00 87 1010.8
20180815084659 70 236 1.0 9.0 0.00 0.32 0.00 87 1010.8
20180815084159 70 252 2.0 9.0 0.00 0.32 0.00 87 1010.8
20180815083659 70 223 2.0 10.0 0.00 0.32 0.00 87 1010.8
20180815083159 70 245 2.0 10.0 0.00 0.32 0.00 87 1010.8
20180815082659 70 208 1.0 10.0 0.00 0.32 0.00 87 1010.8
20180815082158 71 226 2.0 6.0 0.00 0.32 0.00 87 1010.7
20180815081659 71 238 0.0 6.0 0.00 0.32 0.00 87 1010.7
20180815081159 71 228 2.0 6.0 0.00 0.32 0.00 87 1010.7
20180815080659 71 196 1.0 7.0 0.00 0.32 0.00 87 1010.7
20180815080159 71 237 3.0 7.0 0.00 0.32 0.00 87 1010.6
20180815075658 71 242 2.0 8.0 0.00 0.32 0.00 87 1010.6
20180815075159 71 225 3.0 8.0 0.00 0.32 0.00 87 1010.7
20180815074659 71 243 2.0 7.0 0.00 0.32 0.00 87 1010.7
20180815074159 71 213 0.0 7.0 0.00 0.32 0.00 87 1010.7
20180815073659 71 232 2.0 7.0 0.00 0.32 0.00 87 1010.6
20180815073159 71 228 3.0 9.0 0.00 0.32 0.00 87 1010.4
20180815072659 71 211 4.0 9.0 0.00 0.32 0.00 87 1010.5
20180815072159 71 213 2.0 7.0 0.00 0.32 0.00 86 1010.6
20180815071700 71 201 2.0 7.0 0.00 0.32 0.00 86 1010.4
20180815071159 71 266 2.0 7.0 0.00 0.32 0.00 86 1010.4
20180815070700 71 246 2.0 7.0 0.00 0.32 0.00 86 1010.4
20180815070159 71 229 1.0 5.0 0.00 0.32 0.00 86 1010.4
20180815065700 71 261 1.0 5.0 0.00 0.32 0.00 86 1010.4
20180815065159 71 235 1.0 7.0 0.00 0.32 0.00 86 1010.3
20180815064659 71 252 1.0 7.0 0.00 0.32 0.00 86 1010.6
20180815064203 71 209 3.0 7.0 0.00 0.32 0.00 85 1010.7
20180815063702 71 244 2.0 7.0 0.00 0.32 0.00 85 1010.7
20180815063159 71 219 3.0 7.0 0.00 0.32 0.00 85 1010.7
20180815062659 71 200 3.0 7.0 0.00 0.32 0.00 85 1010.7
20180815062159 72 212 2.0 7.0 0.00 0.32 0.00 85 1010.7